Wind_Speed
23 26 30 31 30 29 27 25 25 23 23 21 20 21 22 23 24 23 18 19 18 18 19 18 18 18 18 18 16 14 14 15 14 12 10 10 10 11 10 11 11 12 14 14 16 18 18 18 19
22 23 26 29 32 30 29 29 28 26 24 22 20 21 23 24 23 24 22 21 19 19 19 20 21 20 20 18 17 17 16 16 15 14 12 10 11 11 11 12 12 13 14 16 18 20 20 20 21
24 24 26 27 26 30 30 31 31 29 26 23 22 21 22 22 23 22 22 20 21 21 19 20 21 21 20 19 19 18 17 16 15 14 13 12 12 12 12 12 13 14 15 14 12 13 14 16 18
27 28 28 28 22 23 31 35 33 32 28 25 23 23 23 23 22 22 23 21 20 22 24 21 23 22 22 21 20 19 18 17 16 15 14 13 13 13 14 13 14 13 15 16 17 17 17 17 18
30 30 31 27 21 21 27 35 34 35 32 30 28 27 26 25 22 22 24 24 25 24 23 27 26 26 24 22 20 19 18 18 17 16 16 15 14 14 13 13 13 13 13 14 15 16 17 18 19
33 31 32 25 22 24 26 33 36 36 35 32 30 29 25 24 23 22 24 26 27 25 25 25 25 25 25 23 20 19 19 19 18 18 17 17 16 15 14 14 14 14 13 13 13 13 14 13 16
33 32 32 29 24 28 28 30 32 37 35 35 32 31 29 28 26 25 24 26 26 25 26 27 26 26 24 21 21 21 20 19 20 19 18 18 18 17 16 16 15 14 12 12 13 16 17 18 20
32 32 32 27 24 26 30 32 29 30 39 37 34 35 34 31 30 29 27 27 28 27 24 26 27 26 25 23 21 21 20 20 20 21 20 20 20 20 20 18 17 17 16 18 19 21 24 27 29
32 32 29 23 24 27 32 36 35 32 32 35 39 40 35 35 34 33 31 30 29 29 25 26 28 27 25 25 23 22 21 22 23 22 22 21 22 22 22 22 21 21 20 21 21 23 26 29 30
32 31 24 24 25 30 36 39 40 37 37 36 35 36 40 38 37 36 35 33 30 29 28 27 29 28 28 28 26 23 22 21 22 23 23 24 24 24 23 23 23 23 22 23 23 25 30 29 27
32 29 29 28 29 31 35 39 42 43 40 38 37 38 35 36 41 38 38 36 35 33 30 30 31 31 31 30 30 27 25 22 22 23 26 26 27 27 27 26 26 26 25 24 25 27 29 29 22
30 29 28 29 30 29 30 34 37 42 39 40 36 36 36 35 34 39 40 38 36 34 32 32 33 35 34 32 33 31 28 26 23 23 27 30 30 29 28 28 28 27 26 26 27 29 29 29 24
30 28 26 26 27 29 31 30 33 39 38 38 33 31 31 32 33 33 38 38 36 35 35 34 33 36 37 37 35 32 31 29 26 26 29 32 33 30 29 29 29 27 27 28 28 29 29 28 27
29 27 26 25 24 26 28 32 40 31 36 37 36 32 30 29 29 31 32 37 38 37 35 36 34 35 35 37 37 36 34 33 29 28 29 31 33 31 29 28 29 29 28 28 29 30 30 30 30
29 28 27 25 26 24 26 26 28 32 42 38 37 33 32 28 28 28 32 33 37 39 38 36 35 34 35 35 36 36 36 36 32 30 29 30 31 30 29 29 29 30 29 29 31 31 32 33 34
32 31 28 25 26 26 26 22 27 31 41 40 41 38 36 34 31 29 31 34 36 39 40 38 36 35 36 36 36 36 35 37 35 33 31 32 33 31 30 29 30 30 30 31 32 32 34 37 38
34 33 31 31 31 30 28 26 22 28 30 41 44 43 40 38 36 33 33 34 38 40 42 41 38 37 38 37 35 34 37 36 34 35 33 33 34 34 32 31 31 31 31 33 33 34 35 36 31
34 34 32 32 31 32 31 32 26 26 26 27 36 45 45 44 43 40 36 37 39 41 41 43 41 40 39 38 35 33 37 37 33 35 35 35 36 36 33 33 33 33 32 33 34 34 34 33 34
28 29 31 31 32 34 35 37 35 32 31 31 30 35 45 51 48 47 41 37 40 41 42 40 44 43 42 39 36 35 35 38 36 35 36 35 35 37 36 36 35 34 33 35 36 36 36 37 37
26 29 32 34 35 38 38 40 39 37 35 37 38 38 40 46 53 55 51 44 41 42 44 41 40 45 45 42 39 37 38 38 37 34 35 35 36 36 39 38 37 37 36 38 38 38 39 40 41
28 32 36 39 42 44 46 47 47 47 48 45 44 45 42 44 47 52 55 49 42 44 44 43 40 43 47 45 41 39 39 37 36 33 33 36 37 37 38 40 40 40 40 41 41 41 43 44 44
34 36 41 45 49 52 53 59 57 58 54 53 49 47 46 47 47 51 54 53 46 42 44 45 39 43 44 45 44 41 40 38 35 35 34 37 37 37 38 39 41 42 43 43 44 45 45 47 48
38 42 46 50 54 58 59 67 64 63 61 57 57 55 53 51 50 49 53 53 49 46 45 46 41 42 43 42 44 43 41 39 35 33 36 37 38 38 38 39 40 42 43 44 46 47 48 49 50
44 48 50 54 58 65 65 69 68 66 66 65 61 59 58 55 52 51 52 54 52 51 46 46 41 44 43 42 42 44 42 43 36 34 35 39 39 39 39 40 41 43 44 45 47 49 50 51 52
43 46 50 53 54 60 59 65 66 62 64 63 63 60 60 58 54 52 51 54 54 51 47 45 41 44 43 42 42 42 43 42 38 36 36 37 40 41 41 42 42 44 45 46 48 50 51 52 53
38 32 32 40 46 47 41 33 20 30 45 61 71 67 61 58 54 49 49 51 54 51 49 45 41 43 42 42 42 40 41 43 39 37 37 38 39 39 40 41 43 45 46 47 48 50 51 52 52
30 36 44 51 52 55 54 49 47 36 39 45 46 68 67 59 52 50 48 46 51 51 48 45 43 44 43 42 42 41 41 45 39 37 38 39 40 41 40 41 42 43 44 46 48 49 51 52 53
38 43 44 45 49 50 49 45 44 47 44 42 38 35 56 62 51 50 46 47 47 48 47 45 45 46 44 43 44 42 42 44 40 37 38 39 41 42 41 41 42 42 43 45 48 50 51 52 53
38 37 41 42 46 50 47 40 36 34 37 32 34 28 27 42 49 49 45 46 47 46 44 42 43 45 44 42 43 42 42 42 40 38 37 40 41 41 42 42 42 42 43 46 48 50 51 53 56
35 36 37 39 38 38 39 31 33 31 33 31 24 26 28 32 43 48 45 42 46 42 44 42 43 45 44 43 43 42 43 41 40 40 40 39 40 41 42 43 43 42 45 47 49 51 53 56 58
Wind_Direction
247 249 248 245 245 245 245 245 245 246 248 253 249 246 246 251 252 249 244 238 243 250 253 249 247 250 248 253 262 268 272 277 280 277 271 265 260 253 250 253 258 262 259 259 262 265 269 272 273
245 246 247 248 245 244 244 244 243 243 243 244 243 248 247 245 250 253 253 250 247 246 245 249 250 251 253 254 254 260 267 274 276 276 275 272 264 259 254 256 261 262 263 261 259 261 266 268 271
249 251 250 250 249 247 243 243 242 242 240 241 240 242 248 250 249 251 255 254 249 256 254 251 250 251 252 253 255 259 264 266 270 270 270 268 266 264 263 259 259 257 256 258 264 269 274 275 276
251 252 254 252 252 251 245 243 243 243 239 239 241 243 246 247 247 245 250 255 255 264 269 267 264 251 251 254 256 260 264 264 261 263 264 263 262 263 263 263 263 261 263 264 266 268 272 276 280
250 253 255 253 248 250 247 242 241 242 239 237 237 239 243 249 249 245 250 256 255 262 258 267 270 261 256 252 253 258 258 259 260 259 259 257 256 257 258 259 262 264 265 267 269 273 278 283 284
251 255 257 257 242 242 247 244 238 239 240 237 235 237 241 247 251 250 246 249 257 262 265 264 267 267 265 265 260 254 255 255 253 253 255 259 260 258 257 259 260 260 263 269 270 275 280 285 290
252 253 256 252 237 237 244 249 245 239 242 242 239 238 238 240 242 246 249 252 255 260 266 266 261 264 264 262 264 265 262 258 256 251 251 252 258 260 259 259 260 255 254 257 267 275 281 287 290
251 253 255 252 244 234 240 248 249 245 242 243 243 239 239 240 241 241 244 246 248 254 258 262 254 255 259 260 259 264 269 266 258 254 252 253 256 257 257 255 254 252 255 263 273 281 285 290 293
247 252 256 254 242 232 237 245 246 245 245 244 246 245 243 241 241 242 242 243 247 248 255 254 251 248 249 254 258 261 264 265 265 260 255 254 254 255 258 256 255 256 261 269 279 289 294 294 294
246 252 253 246 236 231 231 241 247 248 246 247 249 249 244 243 244 245 246 247 247 246 247 252 248 249 250 252 253 253 257 261 262 261 259 257 256 256 259 260 261 262 266 272 282 293 296 297 300
248 251 247 243 241 239 234 237 244 250 250 250 251 253 251 249 245 247 249 251 253 252 247 244 246 244 247 252 253 253 258 264 265 261 258 257 255 257 260 264 265 266 267 273 282 293 294 300 294
246 247 246 242 242 242 239 241 244 251 254 254 254 254 254 252 250 246 248 250 252 256 258 251 246 245 245 245 251 253 256 263 268 269 263 259 257 257 258 261 263 266 268 276 282 290 292 296 285
242 242 239 238 236 237 238 239 244 247 251 257 255 253 255 254 253 250 246 249 249 252 255 254 249 251 250 250 252 256 260 262 264 267 266 259 258 259 259 261 263 265 269 276 283 285 288 292 285
238 238 238 238 236 233 237 237 247 245 250 250 249 250 254 252 251 250 249 246 248 249 251 251 251 249 251 257 260 262 264 264 263 264 267 263 260 260 263 264 264 265 267 272 278 282 285 290 288
236 238 236 236 236 234 238 239 259 235 247 248 250 253 253 247 246 246 244 247 244 246 247 249 250 252 252 251 254 258 261 264 264 264 266 264 261 261 263 264 264 264 266 269 274 279 283 286 288
234 236 238 236 235 239 244 245 250 246 245 247 249 248 248 244 246 245 243 240 242 241 245 248 250 250 253 255 256 257 259 264 267 265 265 261 261 262 262 262 262 265 268 269 273 280 285 285 287
234 238 240 239 240 243 248 256 249 252 251 246 247 251 251 248 248 250 246 244 241 242 241 243 248 250 252 254 257 261 259 265 264 261 259 261 260 261 261 261 263 265 268 272 278 283 287 290 282
235 238 242 245 248 248 247 253 247 247 255 260 258 253 252 251 253 250 251 247 244 244 243 241 244 248 252 255 257 259 259 262 265 258 254 257 258 260 260 261 263 266 268 274 279 283 288 290 287
242 245 247 249 251 249 252 256 256 252 257 264 265 262 256 252 252 254 248 249 246 247 247 243 240 245 248 252 255 258 263 262 262 260 255 258 260 260 261 260 264 267 270 275 280 283 287 289 291
249 251 254 254 255 256 254 256 262 262 259 260 262 265 264 256 250 250 252 248 246 245 247 247 242 242 245 248 251 257 261 264 263 263 258 261 262 264 261 261 264 268 272 274 279 283 286 287 290
258 262 264 264 265 265 263 255 256 259 264 266 267 267 263 260 252 248 248 248 245 242 245 247 242 241 244 247 249 253 258 263 262 261 258 260 261 263 264 264 265 268 272 276 279 284 285 287 288
268 268 269 270 271 271 269 265 262 265 260 262 264 262 261 256 253 246 245 246 242 241 243 245 243 243 245 247 249 252 256 260 260 258 260 262 263 264 265 266 267 270 274 278 280 283 285 286 287
274 274 274 274 274 272 271 270 266 263 263 260 260 259 258 258 253 248 244 243 242 239 239 243 242 242 246 248 250 252 255 262 264 262 259 261 262 264 267 269 271 273 275 278 280 282 285 286 289
278 279 279 278 277 274 274 273 265 267 266 266 261 257 255 253 250 247 241 238 240 239 238 243 240 239 243 246 250 251 256 260 265 265 264 260 263 266 268 270 272 274 276 279 282 285 285 287 290
281 280 282 282 281 280 280 278 275 270 267 262 261 257 251 249 247 243 242 235 235 238 239 240 238 238 243 243 246 250 255 260 263 265 265 264 264 266 268 269 272 275 279 282 284 286 288 289 290
285 283 290 292 295 295 288 293 287 278 265 258 254 251 248 248 245 240 239 238 236 236 238 236 234 236 241 242 244 249 255 260 262 264 266 266 266 267 269 272 275 278 281 284 286 287 288 290 293
282 288 293 297 294 291 287 280 276 278 281 283 269 248 248 242 242 240 235 232 233 235 236 234 230 234 237 239 243 247 253 257 262 263 265 267 269 269 272 274 278 281 284 285 286 287 290 293 295
290 293 297 298 295 293 291 289 284 274 273 268 278 262 242 241 234 235 229 228 228 232 231 230 231 234 236 237 240 243 249 256 262 264 264 267 269 271 274 278 281 284 285 286 287 290 293 294 296
293 298 298 295 296 297 296 292 279 270 269 272 262 262 219 230 224 227 222 225 224 227 228 226 228 233 236 238 239 243 249 256 261 263 264 266 270 274 278 281 283 285 286 288 291 292 294 297 298
293 297 294 295 305 303 297 285 287 279 266 260 244 245 225 198 211 217 215 219 220 224 226 225 227 231 233 235 237 243 249 256 261 263 265 269 273 277 281 283 285 287 288 291 291 294 297 298 299
Height
5823 5824 5826 5829 5833 5833 5834 5836 5836 5837 5839 5840 5841 5842 5844 5844 5845 5848 5848 5847 5847 5847 5848 5848 5849 5849 5850 5851 5852 5851 5851 5851 5851 5850 5849 5848 5848 5849 5848 5847 5847 5846 5846 5846 5846 5847 5846 5845 5845
5818 5820 5821 5823 5825 5828 5831 5831 5832 5833 5835 5836 5837 5838 5839 5839 5841 5842 5843 5845 5844 5844 5844 5845 5846 5846 5847 5847 5848 5849 5848 5848 5847 5847 5846 5845 5846 5846 5845 5845 5845 5844 5843 5843 5843 5843 5843 5842 5841
5813 5815 5816 5817 5820 5824 5826 5826 5826 5828 5831 5832 5833 5833 5834 5836 5837 5838 5839 5841 5841 5841 5841 5841 5842 5843 5843 5843 5843 5844 5844 5844 5844 5843 5843 5843 5842 5842 5842 5842 5842 5842 5842 5841 5840 5840 5839 5839 5838
5809 5809 5810 5812 5816 5818 5820 5820 5822 5824 5826 5828 5829 5829 5830 5831 5833 5834 5835 5837 5838 5838 5838 5838 5838 5839 5839 5839 5839 5839 5840 5840 5840 5840 5840 5840 5840 5839 5839 5839 5839 5838 5838 5838 5838 5837 5837 5836 5835
5803 5804 5803 5807 5812 5814 5813 5814 5817 5818 5821 5823 5824 5824 5825 5826 5829 5830 5831 5832 5834 5834 5834 5835 5834 5834 5835 5835 5835 5835 5835 5836 5837 5837 5837 5837 5837 5836 5836 5835 5835 5834 5834 5834 5835 5835 5834 5833 5832
5795 5798 5797 5802 5807 5807 5807 5807 5810 5812 5814 5817 5819 5820 5822 5823 5824 5825 5827 5828 5829 5829 5830 5830 5830 5830 5831 5832 5832 5831 5831 5832 5832 5833 5833 5833 5833 5833 5833 5832 5832 5831 5831 5832 5831 5831 5831 5829 5829
5789 5790 5792 5795 5800 5801 5803 5802 5805 5807 5809 5811 5814 5816 5818 5818 5819 5820 5822 5823 5824 5825 5825 5826 5826 5826 5826 5827 5828 5828 5828 5828 5829 5829 5829 5830 5830 5830 5829 5829 5829 5829 5828 5829 5828 5828 5827 5825 5824
5784 5783 5784 5790 5795 5797 5796 5797 5800 5801 5802 5806 5808 5810 5812 5814 5815 5815 5817 5818 5819 5820 5821 5821 5821 5821 5822 5822 5823 5824 5824 5824 5825 5825 5826 5826 5826 5826 5826 5826 5826 5826 5826 5825 5824 5823 5822 5821 5819
5777 5776 5780 5786 5788 5791 5790 5790 5793 5796 5797 5799 5801 5804 5807 5808 5810 5811 5812 5813 5814 5816 5816 5816 5816 5816 5817 5818 5819 5819 5819 5819 5820 5821 5821 5821 5821 5822 5822 5822 5822 5822 5821 5821 5820 5819 5818 5816 5813
5770 5771 5777 5779 5780 5781 5782 5783 5786 5790 5791 5794 5795 5797 5800 5803 5804 5806 5807 5808 5809 5810 5811 5812 5812 5812 5813 5813 5814 5815 5814 5814 5815 5816 5816 5817 5817 5817 5818 5818 5818 5817 5816 5816 5815 5814 5812 5810 5807
5764 5767 5768 5772 5772 5774 5776 5778 5777 5780 5783 5788 5789 5789 5794 5796 5799 5800 5801 5803 5804 5805 5806 5806 5807 5807 5808 5808 5809 5810 5811 5811 5811 5811 5811 5811 5811 5812 5813 5813 5813 5812 5812 5810 5810 5808 5806 5804 5801
5757 5760 5761 5764 5765 5768 5770 5771 5773 5772 5779 5778 5782 5783 5786 5789 5791 5794 5795 5796 5798 5800 5801 5802 5802 5802 5803 5804 5804 5804 5806 5806 5806 5806 5806 5806 5806 5806 5806 5807 5806 5806 5806 5805 5803 5802 5801 5798 5796
5751 5753 5755 5757 5759 5761 5762 5766 5766 5764 5772 5772 5775 5778 5780 5782 5784 5786 5788 5790 5792 5794 5794 5795 5796 5797 5797 5798 5799 5800 5801 5801 5802 5801 5801 5800 5800 5801 5801 5801 5800 5800 5800 5799 5797 5796 5795 5793 5791
5745 5747 5748 5751 5753 5754 5755 5758 5753 5766 5764 5764 5766 5771 5773 5775 5776 5778 5781 5783 5785 5786 5787 5788 5790 5790 5791 5793 5794 5794 5796 5796 5796 5795 5795 5794 5794 5795 5796 5795 5794 5794 5793 5792 5791 5790 5788 5786 5785
5737 5740 5742 5744 5746 5747 5747 5749 5749 5757 5752 5756 5759 5763 5766 5768 5769 5772 5773 5775 5777 5779 5779 5781 5782 5783 5785 5785 5786 5787 5789 5789 5790 5790 5789 5789 5788 5789 5789 5788 5788 5787 5786 5785 5785 5783 5782 5780 5778
5729 5733 5735 5737 5739 5740 5741 5745 5744 5746 5747 5749 5750 5752 5755 5759 5762 5764 5766 5767 5768 5770 5773 5774 5775 5776 5777 5779 5780 5781 5782 5782 5783 5784 5784 5783 5783 5783 5783 5782 5781 5781 5779 5779 5778 5776 5774 5772 5770
5722 5725 5727 5728 5729 5732 5734 5736 5739 5739 5739 5741 5742 5743 5746 5750 5754 5757 5758 5759 5761 5762 5764 5766 5768 5769 5770 5771 5773 5774 5775 5776 5776 5777 5777 5776 5776 5776 5776 5776 5775 5773 5773 5772 5771 5769 5767 5764 5762
5713 5715 5718 5720 5723 5723 5726 5728 5731 5732 5733 5733 5735 5736 5738 5741 5744 5747 5750 5752 5753 5754 5756 5759 5761 5762 5763 5764 5766 5768 5768 5769 5769 5769 5769 5769 5769 5769 5770 5769 5768 5766 5766 5765 5764 5762 5760 5758 5755
5706 5708 5710 5711 5713 5714 5716 5718 5721 5723 5725 5727 5727 5728 5728 5730 5734 5735 5739 5742 5745 5746 5748 5750 5754 5755 5755 5757 5759 5760 5760 5761 5761 5762 5762 5762 5762 5763 5763 5761 5761 5760 5758 5757 5756 5754 5753 5751 5748
5698 5700 5702 5702 5703 5704 5706 5712 5710 5713 5716 5716 5717 5718 5719 5720 5720 5724 5726 5732 5735 5738 5739 5742 5745 5747 5747 5750 5751 5753 5753 5753 5754 5755 5755 5756 5755 5755 5755 5754 5753 5752 5751 5750 5748 5747 5745 5743 5739
5692 5693 5694 5694 5693 5694 5695 5700 5699 5702 5703 5705 5705 5706 5708 5707 5709 5712 5715 5719 5724 5727 5730 5733 5736 5738 5739 5741 5743 5744 5746 5747 5747 5748 5747 5748 5748 5748 5748 5747 5746 5745 5743 5741 5740 5738 5736 5734 5731
5683 5684 5682 5682 5681 5680 5683 5679 5688 5689 5693 5693 5692 5692 5694 5694 5694 5697 5701 5706 5712 5718 5720 5723 5727 5730 5731 5734 5735 5737 5737 5738 5739 5739 5739 5740 5741 5740 5739 5739 5738 5737 5735 5733 5731 5728 5726 5723 5720
5674 5672 5671 5669 5667 5664 5669 5659 5676 5674 5676 5679 5677 5678 5678 5680 5682 5685 5689 5695 5700 5705 5709 5713 5717 5720 5723 5725 5728 5729 5730 5732 5732 5732 5732 5732 5732 5731 5731 5730 5729 5727 5726 5724 5722 5719 5716 5712 5709
5663 5660 5658 5655 5652 5648 5651 5640 5656 5657 5657 5656 5658 5657 5659 5662 5668 5672 5675 5680 5687 5693 5698 5702 5707 5710 5713 5716 5720 5721 5722 5722 5724 5725 5724 5724 5724 5723 5722 5721 5719 5718 5716 5714 5712 5709 5705 5701 5698
5652 5649 5645 5640 5635 5634 5628 5622 5635 5640 5635 5634 5632 5636 5641 5647 5652 5658 5663 5667 5673 5681 5687 5692 5697 5701 5704 5707 5711 5713 5713 5715 5716 5717 5717 5717 5716 5715 5713 5712 5710 5708 5706 5704 5701 5698 5694 5690 5686
5643 5639 5636 5627 5622 5619 5612 5616 5617 5615 5611 5612 5607 5611 5621 5630 5637 5645 5651 5657 5663 5670 5676 5681 5686 5691 5695 5699 5703 5704 5706 5707 5708 5709 5709 5709 5707 5706 5704 5703 5701 5698 5696 5693 5690 5686 5682 5678 5674
5635 5630 5623 5615 5612 5602 5603 5607 5607 5605 5600 5592 5586 5592 5600 5615 5622 5631 5638 5645 5652 5659 5666 5673 5676 5681 5685 5689 5694 5696 5698 5699 5700 5701 5700 5700 5699 5698 5695 5693 5691 5688 5686 5682 5679 5675 5671 5666 5662
5624 5621 5615 5606 5597 5588 5588 5584 5585 5588 5583 5578 5578 5579 5581 5595 5609 5616 5626 5633 5640 5648 5655 5662 5666 5671 5675 5680 5684 5687 5689 5691 5692 5693 5692 5691 5690 5689 5687 5684 5681 5678 5675 5672 5668 5664 5660 5655 5650
5614 5610 5603 5596 5587 5578 5573 5573 5570 5571 5567 5565 5569 5571 5570 5576 5594 5604 5613 5621 5629 5638 5647 5653 5658 5662 5666 5671 5676 5679 5681 5683 5684 5684 5683 5682 5682 5680 5678 5675 5672 5668 5665 5662 5658 5654 5649 5644 5638
5606 5601 5595 5586 5578 5565 5560 5560 5557 5556 5554 5555 5557 5560 5563 5564 5577 5591 5602 5612 5619 5630 5639 5645 5650 5654 5658 5663 5668 5672 5673 5675 5676 5676 5674 5673 5673 5671 5669 5666 5662 5659 5655 5651 5647 5642 5637 5632 5625